Date,TemperatureHighF,TemperatureAvgF,TemperatureLowF,DewpointHighF,DewpointAvgF,DewpointLowF,HumidityHigh,HumidityAvg,HumidityLow,PressureMaxIn,PressureMinIn,WindSpeedMaxMPH,WindSpeedAvgMPH,GustSpeedMaxMPH,PrecipitationSumIn
2013-1-1,37.9,16.3,-0.6,15.2,-1.9,-16.4,46,44,39,23.24,23.12,14,2,14,0.00
2013-1-2,38.1,21.3,10.2,15.0,2.3,-6.9,45,43,39,23.21,23.15,13,4,13,0.00
2013-1-3,27.9,20.6,11.8,7.1,1.6,-5.4,45,43,41,23.27,23.15,19,6,19,0.00
2013-1-4,41.7,18.4,1.8,18.4,-0.4,-14.7,45,43,39,23.27,23.18,9,1,10,0.00
2013-1-5,51.8,19.6,0.3,26.2,0.3,-16.0,45,43,36,23.36,23.24,9,1,9,0.00
2013-1-6,49.1,23.6,8.1,23.8,3.8,-8.9,45,42,37,23.30,23.00,10,1,10,0.00
2013-1-7,39.2,23.2,8.6,16.3,3.7,-8.4,45,42,39,23.09,22.97,13,2,14,0.00
2013-1-8,50.2,27.6,6.6,24.9,7.0,-10.2,45,41,37,23.24,23.03,15,3,15,0.00
2013-1-9,48.7,34.1,21.0,23.6,12.4,2.0,43,40,37,23.33,23.15,13,2,13,0.00
2013-1-10,29.5,21.8,19.4,10.3,2.9,0.7,44,43,41,23.15,22.74,16,1,16,0.00
2013-1-11,34.0,17.2,0.5,12.4,-1.3,-16.3,45,43,40,22.94,22.77,17,4,17,0.00
2013-1-12,35.6,10.3,-6.7,13.5,-7.6,-22.9,45,43,40,22.94,22.86,12,1,15,0.00
2013-1-13,36.7,10.9,-6.7,14.3,-6.9,-22.5,45,44,40,22.97,22.86,15,1,15,0.00
2013-1-14,22.6,7.1,-4.4,3.4,-10.0,-20.3,45,45,43,23.09,22.92,13,2,13,0.00
2013-1-15,26.6,12.5,-7.6,6.4,-5.4,-23.5,45,44,42,23.27,23.06,18,3,18,0.00
2013-1-16,42.4,20.6,4.3,18.9,1.3,-12.4,45,43,39,23.30,23.21,10,2,11,0.00
2013-1-17,36.3,25.3,13.8,14.3,5.5,-3.7,45,42,40,23.33,23.24,11,2,12,0.00
2013-1-18,40.5,22.1,6.6,17.3,2.7,-10.2,45,43,39,23.30,23.21,9,1,9,0.00
2013-1-19,46.4,23.4,5.4,22.0,3.7,-11.4,45,42,38,23.30,23.18,11,2,11,0.00
2013-1-20,24.1,19.1,14.9,4.3,0.4,-3.1,44,43,42,17.72,17.72,0,0,0,0.00
2013-1-21,47.3,24.7,7.5,22.2,4.8,-9.4,45,42,37,17.72,17.72,13,2,13,0.00
2013-1-22,55.9,31.5,9.0,28.8,10.1,-8.1,45,41,35,17.72,17.72,10,1,10,0.00
2013-1-23,59.2,33.5,13.8,31.4,11.8,-3.6,45,40,35,17.72,17.72,9,1,9,0.00
2013-1-24,51.3,37.6,30.2,25.9,15.9,9.4,45,41,37,17.72,17.72,15,1,15,0.00
2013-1-25,54.5,41.3,35.8,28.1,20.7,16.8,52,44,36,17.72,17.72,7,0,8,0.00
2013-1-26,41.5,38.8,36.7,27.5,24.1,18.0,60,55,45,17.72,17.72,10,1,10,0.00
2013-1-27,43.2,37.4,32.0,30.5,24.3,18.5,62,59,49,17.72,17.72,18,3,18,0.00
2013-1-28,41.2,29.0,17.4,20.1,10.9,-0.4,59,46,39,17.72,17.72,13,1,14,0.00
2013-1-29,34.3,21.5,9.7,12.4,2.4,-7.4,46,43,40,17.72,17.72,16,4,17,0.00
2013-1-30,48.6,27.4,8.2,23.3,7.0,-8.7,46,42,37,17.72,17.72,13,2,13,0.00
2013-1-31,51.1,30.0,14.2,25.4,9.7,-2.3,48,42,37,17.72,17.72,10,1,10,0.00